Wetbulb
67.82 65.97 70.69 68.63 59.61 57.56 54.11 55.36 57.75 55.66 55.96 58.17 58.12 56.49 54.52 54.93 52.08 49.75 63.45 64.71 64.86 65.50 68.94 71.63 74.30 73.63 73.14 73.16 72.86 73.09 72.84 72.04 71.32 69.89 68.71 68.19 67.86 67.76 67.13 66.86 66.52 66.92 68.06 69.03 70.06 69.87 69.53 70.17 70.39
68.28 69.89 69.30 64.93 56.21 52.59 52.86 57.16 54.96 56.88 58.04 58.17 57.15 56.00 54.58 53.36 56.36 56.85 60.25 65.47 65.32 65.70 68.10 67.93 73.52 74.32 73.92 73.72 73.52 73.35 72.35 71.91 70.96 70.18 69.35 68.81 68.46 68.21 67.98 67.53 67.12 66.94 67.75 68.39 69.60 69.95 70.12 69.71 70.41
70.71 69.42 63.48 60.72 57.20 53.28 52.72 56.13 56.71 57.73 57.66 57.30 56.07 57.03 55.61 56.12 57.82 58.09 64.26 65.72 65.45 65.67 66.51 68.81 74.25 74.22 73.72 73.61 73.70 73.45 72.42 71.67 70.95 70.25 70.37 69.25 69.02 68.78 68.34 68.28 67.58 67.40 67.47 68.39 69.03 69.56 69.58 69.79 70.20
67.17 66.20 63.82 55.70 53.75 55.92 55.75 56.83 57.85 57.20 57.43 57.85 56.85 54.17 58.00 61.05 59.64 61.18 64.23 63.89 63.42 63.37 64.03 69.16 69.83 69.55 70.94 72.85 72.95 72.35 71.34 70.85 69.40 68.55 69.42 69.03 68.48 69.13 68.38 67.98 68.13 67.54 67.51 68.05 68.73 69.18 68.99 69.50 69.97
66.71 63.07 57.08 55.24 55.34 57.05 57.90 58.63 58.08 55.66 56.35 56.09 56.11 54.33 56.09 61.15 62.79 63.10 63.17 63.11 62.39 62.93 63.74 65.31 69.57 68.84 69.72 71.05 70.92 70.47 69.34 69.14 68.64 68.42 68.23 68.28 68.28 68.30 67.81 67.67 67.92 67.86 67.56 67.02 67.91 68.27 68.75 68.84 69.83
60.72 61.16 54.11 52.75 53.74 56.93 58.50 58.36 56.98 56.17 56.40 56.37 54.85 54.98 56.32 62.99 62.19 62.55 62.83 63.12 63.38 63.29 65.30 65.68 68.59 69.12 68.36 66.74 65.77 65.79 66.06 66.18 66.13 66.44 66.81 66.81 66.78 66.70 66.68 67.16 67.49 67.69 67.41 67.18 67.32 67.31 67.73 68.38 68.55
58.90 57.04 54.50 54.72 54.37 55.09 56.91 59.18 56.24 55.92 56.04 55.67 57.07 53.84 57.78 60.17 61.96 63.31 62.86 63.39 63.65 63.99 63.35 64.32 64.77 67.67 66.59 66.27 64.20 62.98 63.83 64.26 64.65 65.06 65.15 65.37 65.56 66.13 66.35 66.75 67.45 67.35 67.38 67.06 66.91 66.84 66.95 67.78 68.17
59.95 58.18 54.77 55.20 53.71 54.22 58.17 58.16 59.09 56.27 55.84 58.53 58.06 53.49 54.75 60.86 63.04 63.06 62.52 61.67 62.07 62.78 62.85 63.94 64.46 63.50 64.91 65.76 66.14 63.63 63.75 64.25 64.22 64.51 64.57 64.53 65.12 65.77 66.28 66.19 66.69 66.90 67.10 66.74 66.35 66.79 66.54 67.28 67.79
62.18 54.89 52.63 53.76 53.26 55.35 58.23 57.27 59.38 59.23 57.38 57.38 57.35 57.43 59.13 61.49 61.96 61.14 61.03 60.55 61.27 62.27 63.00 63.82 63.10 64.86 65.81 66.10 66.33 64.36 65.77 65.31 64.70 64.62 64.25 64.32 64.39 65.56 65.95 66.46 66.57 66.76 66.84 66.54 66.35 66.66 66.63 67.08 67.39
57.90 54.17 53.65 56.21 56.45 55.90 57.05 57.44 58.07 57.26 56.95 56.33 56.70 58.60 59.14 60.17 60.30 59.60 59.70 59.67 60.38 61.07 62.48 62.60 63.45 65.94 66.40 65.56 66.16 66.41 65.72 65.62 65.24 64.60 64.09 64.12 64.49 64.91 65.14 64.38 64.79 65.82 66.43 66.28 65.96 66.02 66.49 66.85 67.73
57.97 54.47 56.47 55.84 56.50 57.26 56.87 56.38 58.39 56.33 54.96 57.04 55.63 57.00 59.16 59.44 60.00 59.63 59.24 59.79 60.97 62.40 62.61 62.20 64.82 66.45 66.44 65.97 65.46 65.08 65.48 64.47 64.47 64.14 64.01 64.05 63.15 64.55 66.14 65.63 64.60 65.69 65.84 65.58 65.32 65.77 65.80 65.02 66.69
55.65 57.34 56.82 55.81 56.53 57.18 56.10 57.56 56.08 56.43 56.67 58.03 57.73 57.33 58.63 58.94 59.36 59.65 59.62 59.90 60.94 61.84 61.61 64.23 65.87 66.52 67.34 66.38 65.37 65.40 64.90 64.92 64.45 64.31 65.53 64.15 63.86 65.54 64.76 64.42 64.33 65.90 65.57 66.43 66.89 65.35 66.08 66.49 68.21
55.93 56.08 56.77 56.65 56.89 57.63 57.66 55.86 56.04 56.01 57.53 57.79 57.69 57.66 57.85 58.78 59.43 60.77 60.78 61.34 62.18 61.46 61.96 64.96 66.29 67.01 67.19 66.25 65.47 65.37 64.72 63.89 65.27 64.89 65.20 64.88 64.94 65.09 63.75 64.03 64.42 64.79 64.79 65.61 67.00 65.74 66.13 66.92 67.26
57.10 56.99 56.36 56.95 56.70 57.49 55.21 55.85 55.01 56.74 57.28 56.11 57.58 57.75 57.40 57.55 59.61 60.85 60.97 61.46 61.79 61.17 63.37 65.14 65.99 66.94 66.71 65.73 66.50 65.65 66.55 65.25 65.46 65.30 64.54 65.23 65.00 65.20 64.15 65.27 64.19 65.17 65.96 64.33 67.21 66.38 65.89 65.90 67.69
57.33 54.26 55.43 56.07 56.01 55.79 56.84 53.16 54.14 56.91 57.78 56.60 56.28 57.05 57.96 59.03 59.94 60.29 61.60 62.20 62.05 61.53 64.45 64.90 65.60 65.60 65.98 66.72 66.53 66.78 66.88 67.72 65.73 65.99 65.96 65.38 66.30 66.19 65.56 65.35 65.50 66.68 67.79 67.26 67.84 64.72 66.54 66.45 66.93
54.46 54.79 51.16 55.40 56.01 56.08 54.66 50.07 56.11 57.91 57.40 56.68 56.94 57.72 58.13 59.11 59.85 60.65 61.75 62.98 62.63 62.34 62.49 64.32 65.18 65.44 66.28 66.88 66.62 66.40 67.04 66.86 67.00 65.47 64.81 65.36 65.81 65.93 65.97 65.22 65.67 66.40 67.16 65.46 64.44 64.70 64.65 65.68 65.41
53.43 49.26 50.95 52.18 56.39 55.24 53.97 51.39 55.94 57.64 57.22 56.53 57.05 57.66 58.06 58.47 60.03 61.25 62.07 63.28 62.62 62.21 63.04 62.91 65.02 65.21 65.99 66.93 66.90 67.19 67.45 67.82 67.40 65.64 64.33 64.48 66.06 65.72 66.67 66.72 65.94 66.64 67.76 65.20 64.51 64.79 65.72 65.98 64.34
49.65 50.65 51.65 51.07 54.59 55.20 53.27 52.75 55.83 57.33 57.00 56.64 57.03 57.90 58.40 58.38 59.44 61.19 62.49 63.29 62.52 62.63 64.38 63.74 65.18 66.26 66.30 66.31 65.76 67.89 66.81 67.05 67.32 64.75 62.36 63.15 65.71 65.62 66.76 67.30 66.63 66.83 66.60 65.27 65.48 66.19 66.41 64.79 63.62
52.89 51.97 50.83 53.16 54.96 53.82 53.25 53.20 55.04 57.20 56.86 56.41 56.73 57.29 58.53 59.07 60.48 61.50 62.65 63.18 62.28 62.31 64.25 63.85 63.36 65.66 65.03 64.72 64.56 67.13 66.64 65.02 65.89 65.89 63.83 64.12 64.99 65.39 66.11 67.29 66.89 67.13 66.04 65.88 66.93 65.74 65.94 64.78 64.94
53.00 51.44 50.91 53.16 55.00 54.35 53.42 52.60 54.97 55.32 55.39 56.58 56.56 57.22 58.41 59.50 59.54 60.50 62.32 62.75 62.19 62.45 63.38 63.41 63.65 64.87 65.66 66.49 66.45 65.98 66.35 65.71 64.70 65.85 65.72 64.86 64.87 65.10 65.63 66.26 65.19 65.77 64.94 66.01 66.21 67.04 62.90 62.82 66.03
52.25 50.97 50.96 50.84 53.63 54.70 52.88 50.76 52.35 55.07 56.14 56.50 56.85 57.96 59.38 59.67 59.37 60.16 61.44 62.17 62.27 61.36 63.28 63.52 63.73 64.98 66.79 67.46 67.91 67.19 67.58 66.80 66.28 65.47 64.86 65.04 64.82 65.51 65.83 65.73 65.56 65.37 65.83 65.32 67.40 66.35 65.63 63.27 66.45
49.77 53.43 52.27 51.23 50.40 46.70 52.75 44.53 50.90 53.33 53.40 54.88 56.09 57.38 58.53 59.71 60.33 60.69 61.38 61.89 61.66 61.33 63.85 63.94 64.75 65.52 66.73 67.35 66.27 65.90 65.35 64.89 66.76 65.79 66.33 65.71 65.63 65.29 65.56 65.87 65.66 66.27 65.55 66.81 66.61 68.46 67.10 66.42 63.17
51.29 53.90 52.23 51.90 50.06 49.53 49.18 46.82 49.79 53.16 51.32 52.62 54.76 56.70 58.87 60.20 60.30 60.38 61.11 61.97 61.49 61.38 63.24 64.68 65.35 65.94 66.37 66.92 66.63 66.32 66.22 66.11 66.70 66.38 65.09 65.87 65.87 65.34 65.10 65.68 65.93 66.54 68.19 68.56 67.00 67.43 66.74 68.88 64.39
54.62 52.29 51.64 51.60 50.09 43.90 47.94 47.45 47.78 49.93 50.89 52.23 54.50 56.45 59.41 59.90 60.18 60.85 61.96 62.11 61.09 61.41 63.23 64.22 64.93 64.72 65.86 66.41 66.07 66.04 65.35 64.86 65.32 62.98 64.51 64.10 65.55 65.28 65.69 65.59 66.12 67.09 67.32 67.39 68.36 67.78 67.93 67.53 67.44
52.44 49.97 43.87 42.45 43.39 42.26 49.76 47.20 49.02 52.45 52.60 53.40 54.33 56.74 59.69 60.03 60.02 60.44 60.83 60.36 60.68 60.77 62.25 63.73 63.93 63.37 63.88 65.46 65.06 65.91 66.02 65.48 65.15 64.98 62.81 62.87 64.86 62.83 65.41 66.39 66.40 67.33 67.27 67.68 67.66 68.75 67.75 67.45 66.21
50.42 49.76 44.68 38.70 41.31 44.59 49.70 44.70 49.49 53.53 54.10 55.22 56.22 58.87 60.57 59.78 60.12 60.40 60.96 60.76 60.16 61.12 61.73 62.91 63.13 62.86 63.61 64.24 64.77 65.49 66.12 65.84 65.07 63.76 64.07 63.36 63.61 65.45 66.14 66.21 66.36 66.30 67.05 67.54 68.20 68.11 68.37 68.40 65.79
50.27 47.45 51.92 47.42 48.16 44.96 47.32 50.18 52.93 52.87 53.66 55.81 56.89 58.76 59.96 59.83 59.85 60.46 60.82 61.28 60.23 61.04 61.99 63.00 63.05 62.92 63.21 63.65 64.90 64.79 65.43 65.97 66.72 66.64 66.43 64.51 66.33 65.53 66.13 65.83 66.35 66.50 66.45 66.99 67.75 67.76 66.38 67.13 66.20
52.18 53.20 46.90 47.93 40.86 39.76 45.24 46.72 48.39 50.91 52.23 56.74 57.71 58.73 59.39 59.66 59.70 60.30 60.76 61.49 60.17 61.25 62.90 63.60 63.36 62.25 62.89 63.20 63.79 63.94 64.56 65.72 65.97 65.58 65.25 65.75 64.32 66.30 64.81 65.76 64.89 65.52 66.50 66.99 67.90 67.40 66.10 64.16 64.99
49.34 48.69 50.15 50.44 48.01 42.93 41.88 45.83 53.62 52.76 54.09 55.34 58.42 59.74 59.06 59.11 59.35 60.09 60.86 61.50 59.90 60.88 62.19 63.24 63.27 61.38 61.95 62.58 63.22 63.17 63.61 64.71 65.29 65.27 65.61 64.22 65.94 63.92 65.41 65.46 65.83 65.19 64.99 66.52 67.07 66.15 65.31 63.92 63.43
52.44 50.01 51.16 45.93 45.00 47.68 47.16 47.41 54.94 55.04 55.03 57.37 58.68 59.97 59.47 59.66 59.86 60.56 61.06 61.15 59.41 60.32 61.65 62.48 63.23 61.11 61.24 61.97 62.55 62.35 63.18 64.03 64.70 65.04 65.67 65.90 65.18 63.97 62.84 64.62 65.29 64.99 65.20 64.79 65.76 65.16 64.06 62.86 62.87
MSLP
1011.85 1011.05 1009.79 1008.94 1007.30 1004.27 1001.85 1000.57 1001.67 1001.81 1001.98 1003.37 1004.06 1004.44 1004.73 1005.10 1005.48 1006.45 1008.53 1008.81 1009.34 1009.42 1009.88 1011.21 1012.30 1012.61 1012.74 1012.88 1013.10 1013.40 1013.70 1013.93 1013.99 1014.10 1014.25 1014.39 1014.50 1014.48 1014.42 1014.49 1014.45 1014.39 1014.31 1014.26 1014.23 1014.14 1014.17 1014.07 1013.98
1010.28 1009.88 1009.13 1007.51 1005.35 1002.21 1001.26 1001.25 1001.49 1002.04 1002.91 1004.07 1004.48 1004.68 1004.85 1005.26 1006.52 1007.00 1007.73 1008.90 1009.28 1009.56 1010.22 1010.43 1011.64 1012.10 1012.37 1012.59 1012.84 1013.06 1013.29 1013.49 1013.64 1013.75 1013.90 1014.00 1014.06 1014.08 1014.10 1014.14 1014.22 1014.21 1014.07 1014.09 1014.07 1013.99 1014.01 1013.94 1013.86
1010.24 1009.36 1007.85 1005.54 1003.57 1001.63 1001.12 1001.71 1001.91 1002.46 1003.60 1004.00 1004.07 1004.94 1005.34 1006.02 1007.21 1007.43 1008.44 1009.14 1009.35 1009.65 1009.87 1010.52 1011.62 1012.13 1012.33 1012.45 1012.54 1012.75 1012.91 1013.07 1013.20 1013.28 1013.35 1013.45 1013.59 1013.66 1013.80 1013.84 1013.92 1014.00 1013.87 1013.79 1013.85 1013.80 1013.81 1013.74 1013.73
1009.22 1008.30 1007.31 1005.24 1002.85 1002.53 1002.20 1002.30 1002.56 1002.73 1003.01 1003.92 1004.02 1004.45 1005.94 1007.05 1007.39 1007.83 1008.57 1009.10 1009.27 1009.23 1009.50 1010.69 1011.45 1011.95 1012.27 1012.34 1012.41 1012.59 1012.72 1012.80 1012.94 1012.97 1012.97 1013.01 1013.08 1013.21 1013.43 1013.58 1013.63 1013.65 1013.69 1013.66 1013.66 1013.58 1013.50 1013.59 1013.51
1008.56 1007.07 1005.28 1003.79 1002.32 1001.80 1002.38 1002.67 1002.87 1002.87 1002.69 1003.11 1004.12 1004.52 1005.46 1007.07 1007.88 1008.26 1008.82 1009.18 1009.24 1009.40 1009.69 1010.11 1011.42 1011.85 1012.17 1012.29 1012.33 1012.47 1012.52 1012.65 1012.75 1012.81 1012.80 1012.77 1012.78 1012.84 1012.94 1013.02 1013.11 1013.22 1013.33 1013.34 1013.40 1013.50 1013.41 1013.43 1013.37
1007.14 1005.93 1004.69 1002.82 1001.79 1003.05 1002.19 1002.69 1003.10 1002.88 1002.86 1002.96 1004.25 1004.74 1005.37 1006.71 1007.81 1008.18 1008.64 1008.81 1009.24 1009.65 1010.16 1010.37 1011.33 1011.78 1012.12 1012.34 1012.44 1012.49 1012.55 1012.75 1012.76 1012.67 1012.65 1012.67 1012.62 1012.52 1012.51 1012.44 1012.48 1012.74 1012.91 1012.96 1013.07 1013.18 1013.22 1013.24 1013.22
1006.60 1005.21 1003.87 1002.99 1002.11 1001.86 1002.26 1003.01 1003.12 1002.91 1002.96 1003.14 1003.80 1004.87 1005.34 1006.40 1007.29 1008.26 1008.63 1009.06 1009.41 1009.72 1010.06 1010.35 1010.77 1011.20 1011.62 1011.71 1011.99 1012.25 1012.55 1012.65 1012.58 1012.50 1012.48 1012.40 1012.27 1012.13 1012.02 1011.94 1011.84 1012.11 1012.42 1012.60 1012.76 1012.92 1013.04 1013.07 1013.06
1006.37 1005.25 1003.94 1003.03 1001.86 1001.85 1002.20 1002.75 1002.65 1003.15 1003.16 1004.04 1004.85 1004.72 1005.10 1006.19 1007.43 1008.18 1008.38 1008.62 1009.05 1009.31 1009.45 1009.97 1010.21 1010.33 1010.74 1010.96 1011.55 1011.83 1012.20 1012.35 1012.35 1012.25 1012.09 1012.01 1011.98 1011.78 1011.59 1011.48 1011.41 1011.68 1012.06 1012.24 1012.47 1012.67 1012.84 1012.90 1012.93
1005.83 1005.19 1003.52 1002.63 1001.96 1001.86 1002.14 1002.37 1002.37 1002.87 1003.63 1003.84 1004.48 1005.11 1005.78 1006.60 1007.23 1007.53 1007.74 1007.89 1008.15 1008.64 1009.08 1009.51 1009.96 1010.52 1010.82 1010.80 1010.82 1011.34 1011.36 1011.59 1011.68 1011.60 1011.48 1011.64 1011.33 1010.58 1010.38 1010.49 1010.65 1011.14 1011.72 1011.91 1012.34 1012.40 1012.58 1012.71 1012.75
1005.46 1004.41 1003.32 1002.73 1002.36 1002.43 1002.51 1002.25 1001.89 1002.28 1002.92 1003.40 1004.40 1005.31 1006.35 1006.77 1006.95 1007.02 1007.21 1007.30 1007.58 1008.24 1008.78 1009.47 1010.11 1010.85 1010.97 1010.60 1010.37 1010.48 1010.50 1011.16 1011.38 1011.43 1011.56 1011.23 1010.92 1010.70 1010.39 1010.58 1010.67 1011.01 1011.40 1011.72 1011.95 1012.34 1012.37 1012.50 1011.81
1004.52 1003.95 1003.63 1003.08 1003.02 1002.68 1002.55 1002.35 1001.91 1002.30 1002.51 1002.56 1003.18 1003.88 1005.33 1006.22 1006.56 1006.74 1006.63 1007.02 1007.90 1008.54 1008.88 1009.45 1010.31 1010.72 1010.90 1010.48 1010.33 1010.39 1010.24 1011.12 1011.41 1011.24 1011.26 1011.22 1011.04 1010.27 1010.13 1010.13 1009.98 1010.51 1011.03 1011.23 1011.46 1011.74 1011.79 1011.42 1011.11
1003.66 1003.74 1003.64 1003.26 1003.08 1002.56 1002.52 1002.28 1002.29 1002.51 1002.56 1002.82 1003.56 1004.07 1004.64 1005.57 1005.99 1006.47 1006.71 1007.22 1007.92 1008.59 1009.18 1009.71 1010.14 1010.59 1010.74 1010.62 1010.29 1009.91 1010.35 1010.74 1010.52 1010.64 1010.69 1010.72 1010.42 1010.19 1010.32 1010.18 1009.78 1009.74 1009.80 1010.26 1010.99 1010.70 1010.50 1010.76 1011.04
1003.14 1003.46 1003.49 1002.76 1002.44 1002.29 1002.29 1002.35 1002.44 1002.38 1002.33 1002.93 1003.56 1004.00 1004.37 1004.99 1005.65 1006.37 1007.03 1007.73 1008.47 1008.83 1009.29 1009.76 1010.21 1010.40 1010.61 1010.66 1010.66 1010.46 1010.89 1010.64 1009.63 1009.68 1009.61 1010.12 1010.18 1010.14 1010.09 1009.78 1009.79 1009.35 1009.50 1010.01 1010.80 1010.25 1010.11 1010.46 1011.01
1002.99 1002.70 1002.51 1002.12 1001.89 1002.04 1002.23 1002.15 1002.39 1002.36 1002.55 1003.20 1003.52 1003.74 1004.14 1004.82 1005.58 1006.32 1007.53 1008.02 1008.66 1009.08 1009.37 1009.76 1010.04 1010.19 1010.21 1010.57 1010.61 1010.60 1010.38 1010.34 1009.88 1009.01 1009.44 1009.70 1009.77 1009.82 1009.80 1009.84 1009.67 1009.63 1009.67 1009.88 1010.41 1010.08 1009.90 1010.67 1011.10
1002.36 1002.25 1002.04 1001.80 1001.59 1001.67 1001.90 1002.02 1001.58 1002.32 1002.37 1002.29 1003.00 1003.69 1003.97 1004.29 1005.19 1006.21 1007.31 1008.18 1008.70 1008.99 1009.40 1009.69 1009.85 1009.85 1009.98 1010.12 1010.11 1010.25 1010.04 1009.89 1009.55 1009.10 1009.15 1009.02 1009.28 1009.63 1009.58 1009.42 1009.45 1009.51 1009.53 1009.70 1009.55 1009.89 1009.81 1010.61 1010.76
1002.04 1001.85 1001.22 1000.59 1000.39 1001.22 1002.13 1001.23 1000.68 1001.29 1001.86 1002.11 1002.54 1002.78 1003.27 1003.88 1005.06 1006.19 1007.16 1008.19 1008.77 1009.02 1009.22 1009.65 1009.64 1009.65 1009.53 1009.67 1009.57 1009.66 1009.45 1009.52 1009.57 1009.13 1009.40 1009.31 1009.06 1009.11 1009.38 1009.20 1009.26 1009.41 1009.64 1009.69 1009.45 1009.24 1009.61 1009.97 1010.48
1001.63 1000.89 1000.34 999.91 999.86 1000.81 1001.48 1001.17 1000.48 1000.65 1001.02 1001.34 1001.67 1001.97 1002.61 1003.66 1005.20 1006.21 1007.23 1008.06 1008.67 1008.93 1009.22 1009.46 1009.63 1009.48 1009.60 1009.45 1009.19 1009.29 1009.35 1009.32 1009.44 1009.47 1009.56 1009.35 1008.97 1008.73 1008.96 1009.07 1009.19 1009.21 1009.59 1009.17 1008.88 1009.09 1009.37 1010.10 1010.31
1000.16 999.76 999.44 999.49 999.25 1000.27 1000.72 1000.52 1000.30 1000.02 1000.19 1000.44 1000.52 1001.24 1001.89 1003.14 1004.60 1006.06 1007.13 1007.83 1008.46 1008.83 1009.24 1009.42 1009.43 1009.46 1009.63 1009.11 1009.16 1008.90 1009.22 1009.15 1009.08 1009.19 1009.38 1009.14 1008.78 1008.51 1008.40 1008.67 1009.04 1009.33 1009.49 1009.20 1008.96 1009.17 1009.55 1009.87 1010.15
999.77 999.20 998.74 998.69 999.11 999.62 999.92 1000.20 1000.06 999.64 999.49 999.45 999.68 1000.11 1001.20 1002.51 1004.11 1005.77 1006.96 1007.72 1008.29 1008.76 1009.04 1009.13 1009.27 1009.40 1009.45 1008.82 1008.83 1008.80 1008.99 1008.39 1008.65 1009.06 1009.20 1008.92 1008.60 1008.23 1008.24 1008.64 1008.87 1009.20 1009.53 1009.49 1009.40 1009.43 1009.89 1009.97 1009.96
999.63 999.18 999.04 999.28 999.47 999.70 1000.05 1000.04 999.82 999.32 998.84 998.66 998.78 999.32 1000.56 1002.21 1003.77 1005.30 1006.63 1007.49 1008.00 1008.36 1008.72 1008.96 1009.02 1009.20 1009.24 1008.72 1008.94 1008.91 1009.05 1008.83 1008.71 1008.71 1008.66 1008.33 1007.99 1008.32 1008.39 1008.45 1008.35 1008.65 1009.26 1009.57 1009.56 1009.77 1009.87 1010.06 1010.38
998.88 999.07 999.15 999.31 999.44 999.66 1000.04 999.48 998.51 997.99 997.91 998.03 998.39 999.15 1000.02 1001.60 1003.29 1004.87 1006.16 1007.07 1007.66 1008.12 1008.52 1008.67 1008.91 1009.13 1009.17 1009.04 1008.70 1008.86 1008.93 1008.78 1008.88 1008.54 1008.18 1008.50 1008.22 1007.97 1008.32 1008.42 1008.14 1008.55 1008.80 1009.40 1009.79 1009.71 1009.55 1009.86 1010.68
998.04 998.81 999.43 999.59 999.91 999.54 999.67 998.25 998.10 997.54 997.08 997.31 997.64 998.55 999.75 1001.13 1002.89 1004.42 1005.67 1006.69 1007.32 1007.71 1008.27 1008.55 1008.75 1008.90 1008.99 1009.01 1008.53 1008.79 1008.86 1008.74 1008.66 1008.70 1008.62 1008.53 1008.34 1008.35 1008.28 1008.42 1008.45 1008.50 1008.27 1008.95 1009.49 1009.95 1010.10 1010.13 1010.93
997.74 998.62 999.00 999.56 1000.16 999.97 999.52 998.67 997.41 996.84 996.37 996.79 997.02 997.49 999.06 1000.62 1002.34 1003.79 1005.10 1006.19 1006.90 1007.46 1008.07 1008.37 1008.59 1008.80 1009.00 1009.09 1008.92 1008.59 1008.76 1008.86 1008.90 1008.85 1008.87 1008.71 1008.50 1008.44 1008.35 1008.54 1008.59 1008.59 1008.88 1009.05 1009.55 1009.96 1010.23 1010.27 1010.59
998.07 998.59 999.22 999.60 999.98 999.43 998.97 998.31 996.69 995.85 996.06 996.69 996.87 997.48 998.85 1000.27 1001.94 1003.40 1004.78 1005.89 1006.56 1007.27 1007.78 1008.21 1008.43 1008.73 1008.85 1008.76 1008.98 1008.85 1008.99 1008.94 1008.84 1008.98 1009.06 1008.95 1008.95 1008.78 1008.60 1008.67 1008.86 1008.95 1009.10 1009.18 1009.64 1009.95 1010.46 1010.70 1011.50
997.59 998.42 998.74 999.41 999.16 998.31 997.71 997.35 996.47 996.23 996.34 996.67 996.91 997.41 998.77 1000.22 1001.74 1003.17 1004.42 1005.35 1006.21 1006.92 1007.52 1007.95 1008.21 1008.56 1008.77 1008.68 1008.92 1008.87 1008.66 1008.99 1008.96 1009.10 1009.33 1009.39 1009.24 1009.17 1008.89 1008.84 1008.99 1009.05 1009.20 1009.26 1009.82 1010.25 1010.78 1011.25 1011.86
996.79 997.77 997.66 997.82 997.38 996.51 996.75 996.63 995.83 995.98 996.39 996.91 997.34 997.95 998.90 1000.37 1001.68 1002.99 1004.17 1004.98 1005.90 1006.68 1007.28 1007.46 1008.01 1008.42 1008.61 1008.71 1008.91 1008.98 1008.85 1008.92 1008.97 1009.47 1009.72 1009.78 1009.50 1009.32 1009.23 1009.16 1009.10 1009.15 1009.27 1009.63 1010.29 1010.82 1011.31 1011.70 1012.49
995.85 996.83 997.61 997.56 997.10 996.57 995.96 995.53 995.65 996.06 996.17 996.38 997.14 998.35 999.34 1000.47 1001.69 1002.88 1003.86 1004.79 1005.60 1006.41 1007.11 1007.52 1007.85 1008.24 1008.46 1008.78 1008.97 1009.01 1009.07 1009.03 1009.37 1009.44 1009.73 1009.80 1009.59 1009.62 1009.52 1009.33 1009.48 1009.48 1009.83 1010.32 1010.80 1011.30 1011.62 1012.34 1012.92
994.88 996.39 997.10 997.22 997.02 996.48 995.54 995.00 994.74 995.47 995.49 996.27 997.22 998.38 999.60 1000.59 1001.65 1002.70 1003.63 1004.66 1005.43 1006.22 1006.99 1007.51 1007.91 1008.18 1008.44 1008.70 1008.78 1008.94 1009.04 1009.00 1009.04 1009.16 1009.39 1009.76 1010.08 1009.80 1009.83 1009.98 1009.68 1010.23 1010.41 1010.84 1011.10 1011.66 1012.25 1012.84 1013.80
994.46 994.84 995.94 996.45 996.54 995.85 995.27 994.34 994.15 994.76 995.41 996.10 996.69 998.19 999.47 1000.39 1001.33 1002.36 1003.36 1004.49 1005.20 1006.02 1006.61 1007.36 1007.69 1008.05 1008.42 1008.69 1008.93 1009.07 1009.07 1009.25 1009.22 1009.29 1009.50 1010.05 1010.02 1010.43 1010.29 1010.18 1010.33 1010.65 1011.03 1011.31 1011.54 1012.15 1012.53 1013.05 1013.97
993.71 994.25 994.98 995.59 996.27 995.89 994.91 994.04 994.37 995.19 995.48 996.09 996.34 997.86 999.24 1000.15 1001.05 1001.96 1002.93 1004.14 1004.85 1005.67 1006.24 1007.06 1007.45 1007.76 1008.22 1008.57 1008.83 1009.16 1009.24 1009.42 1009.46 1009.51 1009.75 1010.17 1010.25 1010.65 1011.17 1011.08 1011.02 1011.27 1011.45 1011.92 1011.99 1012.22 1012.94 1013.39 1013.72
Wind_Speed
11 12 10 7 9 10 14 0 7 10 3 6 4 7 13 10 9 6 6 5 4 4 6 13 13 13 13 13 13 12 11 12 11 11 12 12 12 12 13 13 11 11 12 12 11 12 12 12 11
12 10 6 9 10 13 4 10 7 10 9 1 2 4 5 6 6 2 4 6 4 3 2 5 17 15 14 13 12 12 12 11 10 11 13 13 13 14 14 14 13 13 13 13 13 13 13 12 12
12 9 10 11 14 14 10 8 11 7 1 7 4 1 4 9 4 4 9 5 4 3 6 7 11 9 11 12 11 11 10 10 11 11 13 14 15 15 16 16 16 14 15 15 14 14 13 15 12
8 9 9 10 19 8 5 12 10 12 6 6 4 6 6 7 4 3 7 4 3 5 1 14 10 5 7 9 11 11 10 11 12 14 14 15 17 17 18 17 18 16 15 15 15 14 12 15 13
9 8 12 17 17 9 3 10 10 9 6 3 4 5 1 8 4 5 4 3 4 5 6 4 8 3 4 7 7 8 7 9 11 13 14 16 17 17 18 19 19 19 16 16 15 12 11 12 14
10 10 13 15 5 9 4 5 7 10 8 3 4 6 2 13 7 5 4 3 3 4 3 4 8 7 5 3 1 4 6 8 10 12 13 15 18 19 19 20 21 19 18 17 15 13 11 11 12
15 12 17 17 18 13 6 6 10 11 11 7 4 7 2 7 7 5 4 3 2 0 3 3 6 2 12 9 6 1 6 10 11 13 14 15 17 18 18 19 20 18 20 17 15 15 12 11 11
13 14 21 16 14 12 9 0 12 7 8 5 3 6 8 7 9 7 7 6 6 7 5 5 6 7 6 9 9 4 6 10 11 13 15 15 15 17 19 19 18 16 19 18 17 15 13 10 11
13 14 15 19 16 10 10 13 5 4 10 7 4 6 6 6 9 8 7 6 5 4 5 6 6 7 8 9 8 5 12 11 10 11 11 11 9 12 10 13 13 16 18 14 14 14 12 9 10
16 14 21 15 14 12 16 17 17 6 10 9 8 7 4 7 9 10 9 8 4 4 5 6 4 6 8 8 7 8 7 4 8 8 9 8 9 9 11 5 6 12 16 15 14 12 12 10 9
20 17 18 17 15 14 16 17 9 9 10 10 3 7 14 12 10 11 9 2 6 5 5 7 4 5 7 7 6 6 2 4 5 7 7 6 7 8 5 6 8 8 15 10 12 11 10 12 9
21 19 20 16 18 15 13 10 9 8 10 4 5 4 8 12 11 11 8 3 3 4 5 5 4 4 5 6 7 7 5 5 7 6 8 6 6 5 4 6 8 6 8 11 7 8 9 12 8
18 18 21 21 16 15 14 10 12 12 7 4 4 7 10 11 11 8 5 2 2 3 5 5 5 5 5 5 6 6 4 7 6 7 4 6 6 5 5 5 6 7 6 7 7 10 7 8 9
21 25 20 17 17 16 11 16 5 11 2 3 9 11 9 9 12 9 7 5 3 1 3 5 6 5 5 5 7 5 5 8 7 3 4 4 6 4 6 6 6 7 4 5 9 10 7 6 10
21 19 20 18 18 16 12 17 16 12 9 9 8 11 13 13 11 11 9 6 3 3 1 4 5 4 4 8 8 6 6 6 6 6 5 6 5 7 6 4 6 7 7 9 10 7 8 9 9
20 23 19 22 23 13 9 19 14 12 11 11 13 14 12 12 11 11 8 6 4 3 2 3 4 6 6 8 6 5 5 5 5 4 4 9 8 8 5 5 3 6 6 8 8 9 9 10 8
19 18 22 19 11 13 16 19 19 6 11 13 13 13 11 11 12 10 9 9 5 4 3 3 4 6 7 8 5 4 5 4 2 2 2 8 10 9 6 5 5 7 6 7 7 9 9 7 5
20 23 20 16 14 11 16 19 19 16 15 16 17 12 11 13 15 13 11 9 6 4 4 2 4 5 7 9 1 3 3 3 2 2 2 8 6 8 7 6 7 7 6 7 4 5 5 9 6
22 20 16 12 6 14 11 16 20 19 15 17 18 12 11 13 13 13 12 9 7 5 5 3 3 4 5 7 6 3 4 2 1 2 6 7 8 9 5 5 7 8 7 7 7 5 9 5 6
25 20 19 15 14 10 14 19 21 20 21 17 16 12 10 13 14 15 13 11 8 6 4 3 1 3 4 5 4 4 3 5 4 4 3 3 4 4 4 7 9 10 7 8 8 8 6 3 3
23 20 17 17 16 11 12 23 22 15 10 13 11 6 9 14 16 16 15 12 9 7 6 4 1 3 4 3 1 3 2 1 2 5 5 3 3 5 5 7 6 8 9 8 8 7 6 6 5
22 18 19 16 15 13 14 15 15 16 9 10 13 11 10 14 16 16 15 13 10 8 7 5 3 1 4 7 4 3 3 4 2 3 5 3 3 4 5 7 8 9 8 9 8 7 7 9 9
19 17 16 13 15 18 18 12 15 10 9 6 8 12 12 15 17 17 16 14 11 8 8 5 5 4 3 5 7 5 6 4 3 2 4 7 5 4 4 7 8 8 3 7 9 8 9 6 10
20 16 15 10 11 16 18 16 15 9 4 4 3 5 13 15 17 17 16 14 11 9 9 6 6 4 1 4 5 5 6 6 6 5 4 5 5 3 4 8 6 7 7 9 8 9 9 9 8
16 13 11 13 14 14 17 12 9 13 3 5 4 3 10 13 16 17 17 15 13 11 10 7 7 6 2 4 4 6 6 7 9 6 5 4 5 4 5 6 6 6 8 10 10 10 11 11 10
21 20 12 15 13 13 11 7 5 4 2 3 3 3 11 13 16 17 17 14 13 12 10 7 7 6 5 5 4 5 8 8 7 8 4 3 4 6 7 7 7 7 10 10 10 9 9 11 10
18 22 20 20 17 12 6 7 10 6 10 8 5 4 10 14 17 17 17 14 13 12 11 8 7 6 5 5 4 4 5 8 6 7 6 4 4 4 8 8 9 10 11 12 12 9 11 12 10
23 19 19 14 17 16 13 10 3 11 5 8 8 7 12 16 17 16 15 14 12 12 10 9 8 7 6 5 4 5 5 6 7 6 6 5 6 8 6 9 9 9 12 12 13 11 9 10 8
21 21 15 15 13 11 10 8 8 6 5 2 10 11 16 17 17 16 15 14 13 12 12 10 8 8 7 6 5 4 5 7 6 6 9 7 8 7 8 8 10 11 10 11 11 11 11 11 10
26 26 22 11 17 12 13 3 10 7 5 5 9 13 17 17 17 16 16 15 14 13 12 11 9 9 8 8 6 6 5 7 6 7 9 9 7 9 6 7 9 9 10 9 12 12 12 12 11
Wind_Direction
173 187 220 237 244 224 263 164 26 289 193 77 25 327 349 329 2 10 107 102 97 83 123 164 176 197 210 215 223 232 240 243 244 241 243 245 257 276 288 292 292 288 279 273 269 247 245 255 261
174 195 229 273 259 265 61 22 335 3 17 31 217 251 256 21 35 68 197 136 154 132 144 272 169 195 212 223 230 236 243 249 254 249 248 248 254 266 277 282 284 282 273 267 266 260 247 244 253
252 225 272 246 245 272 345 16 359 13 138 236 233 95 6 60 87 23 74 147 188 216 188 149 160 200 224 237 244 250 263 268 275 274 265 266 269 271 275 273 271 273 268 261 259 260 255 245 245
198 211 235 254 280 299 353 331 339 312 167 238 314 301 128 66 120 87 119 187 238 256 224 125 133 171 236 253 257 261 274 281 286 284 278 277 275 276 276 271 266 259 259 260 258 270 258 252 242
241 263 265 261 260 308 338 311 338 297 280 226 141 310 109 136 108 136 165 219 263 304 346 58 119 132 267 278 284 295 318 303 292 285 284 286 285 279 273 266 260 255 246 247 252 257 273 260 257
231 234 274 272 300 251 271 1 311 288 298 149 264 308 28 116 164 169 180 192 333 347 3 308 132 161 138 115 66 332 322 302 294 289 284 283 281 279 274 270 257 245 241 236 244 253 264 266 258
252 269 266 282 288 304 3 30 290 313 305 316 63 305 75 163 157 160 180 181 214 235 228 288 298 253 196 200 177 217 304 299 296 293 286 278 276 274 271 268 256 236 232 231 236 249 255 270 257
255 265 269 275 282 284 279 311 271 279 312 26 339 278 341 124 144 177 209 191 203 195 256 318 268 297 302 296 181 204 279 288 293 293 285 283 282 270 264 260 251 238 227 227 228 240 248 261 254
242 259 263 269 286 303 306 278 280 154 279 211 264 283 47 131 168 200 212 217 231 266 259 284 317 332 311 292 285 205 239 237 270 276 269 272 270 272 264 260 243 222 220 217 226 240 242 253 244
234 248 259 287 304 304 302 295 298 236 249 230 216 237 202 194 197 218 214 235 216 282 338 319 324 316 302 284 284 277 285 321 300 297 295 289 289 285 283 292 233 230 213 217 217 241 242 238 230
228 246 272 285 290 292 312 290 302 288 273 304 280 241 179 206 212 229 244 277 348 345 308 351 324 293 297 309 314 289 340 329 268 270 257 254 258 267 252 268 206 208 209 215 204 217 229 224 217
244 243 270 278 271 273 279 308 299 278 275 344 322 302 190 212 217 225 237 215 238 351 322 333 317 296 290 307 310 312 335 296 242 237 231 260 254 265 266 250 233 221 198 199 204 226 202 227 198
234 252 253 260 258 261 274 275 272 292 309 295 254 238 233 220 224 214 230 190 293 299 342 320 330 305 296 311 295 313 292 271 291 266 240 255 295 291 286 269 254 232 208 175 187 227 221 165 210
234 236 251 258 253 256 236 264 175 271 68 287 252 249 238 230 215 191 202 213 233 321 309 330 312 306 314 299 289 265 275 264 259 266 277 271 255 261 271 262 236 233 217 196 180 218 201 183 213
254 255 258 255 254 251 236 255 241 253 195 244 252 236 239 215 208 200 193 196 229 256 283 319 265 302 281 242 262 286 281 265 292 315 316 253 247 259 267 254 206 205 194 200 195 204 163 184 216
246 243 254 249 226 223 215 256 259 214 240 250 249 231 235 220 208 196 178 185 192 254 285 302 323 324 334 311 303 284 287 281 288 289 300 310 274 254 242 243 209 188 184 200 183 183 172 179 195
225 245 242 248 179 222 207 260 281 217 277 267 271 264 229 208 203 191 182 183 191 210 244 314 346 316 332 307 289 295 306 279 257 237 252 275 273 251 224 214 199 179 187 222 174 181 171 178 192
226 231 230 251 215 193 255 253 257 247 247 264 263 237 231 209 195 187 194 180 179 199 207 254 307 321 335 289 190 357 327 280 242 168 242 279 263 259 231 225 183 182 185 222 204 150 147 176 166
248 263 271 276 280 250 259 273 282 289 277 268 268 233 227 205 189 182 187 181 179 199 213 232 345 326 334 305 345 23 353 31 193 244 245 261 264 252 225 193 163 170 177 197 170 164 173 214 127
244 255 261 260 270 273 283 286 284 288 271 278 267 233 210 194 186 176 182 186 187 187 188 188 298 354 325 11 355 352 354 30 36 34 5 293 175 215 212 187 176 177 164 172 180 179 187 133 152
229 243 251 260 275 256 282 267 262 264 267 262 253 239 205 193 186 179 182 187 182 187 176 157 90 44 5 2 275 48 330 251 295 347 59 22 240 152 171 183 200 167 169 172 178 184 153 144 141
234 226 247 267 273 264 269 292 293 275 272 266 221 204 223 181 181 180 182 183 184 174 164 150 122 77 102 1 24 1 340 326 25 11 346 12 96 112 180 193 176 191 210 139 172 176 181 166 158
236 241 248 232 253 269 263 263 279 262 247 266 238 207 177 172 179 178 181 176 179 163 161 157 145 115 91 55 13 16 26 13 354 45 25 31 38 44 132 180 200 204 177 171 168 173 176 185 150
233 227 252 263 256 255 257 258 266 279 98 305 270 104 150 169 171 173 174 171 168 173 160 164 147 129 137 59 46 32 34 16 27 55 34 54 38 64 119 143 171 185 185 167 175 164 153 135 130
212 212 222 225 229 247 245 239 281 297 310 292 325 145 149 163 168 169 170 174 167 171 164 171 162 142 160 82 57 24 33 38 51 73 61 31 52 26 76 122 116 148 164 161 153 148 136 131 121
199 212 226 214 232 248 137 234 276 214 30 263 271 337 131 162 167 169 173 173 172 169 171 177 165 154 162 96 80 55 16 65 67 80 83 62 44 52 80 107 111 127 140 141 129 127 126 119 121
187 216 225 260 287 291 234 231 188 190 227 198 144 164 152 165 163 170 171 171 174 170 173 175 157 150 155 120 109 77 60 68 77 92 100 78 58 91 82 90 79 112 115 120 125 128 119 120 111
212 199 218 228 248 261 240 235 232 178 189 104 146 167 155 162 165 170 169 170 174 173 167 178 172 166 158 136 139 109 87 78 91 69 73 101 96 68 103 86 91 89 103 116 121 120 116 112 111
204 226 205 247 223 235 248 266 103 135 131 351 144 158 164 167 168 170 170 168 175 172 173 179 186 159 161 143 133 126 100 97 87 82 73 81 109 79 82 79 88 90 95 116 112 118 127 117 131
212 211 208 215 221 252 272 236 105 173 215 175 151 159 167 172 170 169 170 169 174 176 167 177 185 169 170 157 141 131 122 104 94 89 88 103 92 92 84 86 100 91 105 116 124 128 135 133 122